Simultaneous Nadir Overpasses (SNOs) Predictions

Prediction of SNOs between FY3D and LANDSAT-8 Satellite Orbit:

Table of predicted SNOs for the next 14.0 days since TLE Epoch: 2/24/2024
Index Date (FY3D) Time (FY3D) Lat,Lon (FY3D) SZA (FY3D ) Date (LANDSAT-8) Time (LANDSAT-8) Lat,Lon (LANDSAT-8) SZA (LANDSAT-8 ) Distance(km) Time Diff (sec)
1 02/25/2024 21:59:00 -73.99, 33.12 97.09 02/25/2024 21:59:33 -73.97, 33.07 97.11 2.80 33
2 02/25/2024 22:49:45 73.94,-159.44 82.85 02/25/2024 22:48:59 73.94,-159.34 82.86 3.20 46
3 02/28/2024 13:25:52 73.99, -18.56 81.93 02/28/2024 13:26:32 74.01, -18.60 81.94 1.72 40
4 02/28/2024 14:16:36 -73.95, 148.87 98.13 02/28/2024 14:16:01 -73.93, 148.87 98.15 2.12 35
5 03/02/2024 04:52:42 -74.01, -70.28 99.06 03/02/2024 04:53:32 -74.02, -70.33 99.06 1.64 50
6 03/02/2024 05:43:27 73.96, 97.16 80.88 03/02/2024 05:42:59 73.94, 97.13 80.85 3.05 28
7 03/04/2024 20:19:34 74.04,-122.00 79.95 03/04/2024 20:20:30 74.05,-122.00 79.96 1.15 56
8 03/04/2024 21:10:18 -73.99, 45.42 100.11 03/04/2024 21:09:59 -73.98, 45.47 100.13 2.35 19
9 03/07/2024 11:46:25 -74.08,-173.77 101.04 03/07/2024 11:47:30 -74.06,-173.72 101.05 2.13 65
10 03/07/2024 12:37:09 73.98, -6.20 78.85 03/07/2024 12:36:57 73.98, -6.27 78.85 2.36 12



Historial Predications of SNOs between FY3D and LANDSAT-8
